Regional Weather Roundup
Issued by NWS Bismarck, ND

Home | Current Version | Previous Version | Text Only | Print | Product List | Glossary On
Versions: 1 2 3 4 5 6 7 8 9 10 11 12 13 14 15 16 17 18 19 20 21 22 23 24 25 26 27 28 29 30 31 32 33 34 35 36 37 38 39 40 41 42 43 44 45 46 47 48 49 50
000
ASUS43 KBIS 170710
RWRBIS

NWR BROADCAST TEXT
NATIONAL WEATHER SERVICE BISMARCK ND
200 AM CDT TUE OCT 17 2017

NOTE: "FAIR" INDICATES FEW OR NO CLOUDS BELOW 12,000 FEET WITH NO
SIGNIFICANT WEATHER AND/OR OBSTRUCTIONS TO VISIBILITY.


CITY           SKY/WX    TMP DP  RH WIND       PRES   REMARKS
WILLISTON      CLEAR     38  32  79 SW3       29.90S
MINOT          CLEAR     47  34  60 SW12      29.88S
MINOT AFB      CLEAR     42  31  66 SW12      29.86S
BISMARCK       CLOUDY    35  30  82 CALM      29.98S
DICKINSON      CLEAR     42  30  62 S9        29.96F
GARRISON         N/A     41  38  89 S3        29.92F
HETTINGER ARPT CLOUDY    31  24  75 CALM      30.03F
JAMESTOWN      CLOUDY    42  33  70 W5        29.94R
CARRINGTON     FAIR      41  34  75 W7        29.95S
HAZEN          FAIR      34  30  86 W3        29.97S
LINTON           N/A     34  25  69 CALM      30.00F
RUGBY          FAIR      41  34  75 S7        29.90S
STANLEY        FAIR      43  32  65 SW6       29.91S
TIOGA          FAIR      46  30  53 S17       29.89F
WATFORD CITY   FAIR      37  32  81 SW6       29.91S
$$

CITY           SKY/WX    TMP DP  RH WIND       PRES   REMARKS
GRAND FORKS    CLOUDY    39  33  79 SW6       29.90R
GRAND FORKS AF CLOUDY    39  33  80 W6        29.90R
DEVILS LAKE    PTCLDY    38  35  89 SE3       29.92R
FARGO          CLOUDY    42  36  79 SW6       29.93R
CANDO          FAIR      34  34 100 SW6       29.92S
CAVALIER       FAIR      48  37  66 W8        29.87S
GRAFTON        FAIR      37  32  81 SW5       29.91R
GWINNER          N/A     41  37  87 W12       29.95S
LANGDON        FAIR      36  30  80 S7        29.90S
ROLLA          FAIR      41  30  65 S7        29.89S
WALHALLA       FAIR     N/A N/A N/A SW6       29.87S
$$

CITY           SKY/WX    TMP DP  RH WIND       PRES   REMARKS
ABERDEEN       CLEAR     37  34  89 SW5       29.99R
MOBRIDGE       CLEAR     38  34  85 N3        29.99R
BUFFALO          N/A     46  27  47 W10       29.97F
RAPID CITY     CLEAR     40  28  62 NW7       30.09F
GLASGOW        CLEAR     54  26  34 SW5       29.87S
SIDNEY         CLEAR     42  32  67 S10       29.92S
WOLF POINT     CLEAR     36  29  75 CALM      29.89S
GLENDIVE       CLEAR     43  29  57 S10       29.96S
MILES CITY     CLEAR     43  31  62 S8        29.99F
BAKER          CLEAR     50  30  46 W10       30.01F
$$

CITY           SKY/WX    TMP DP  RH WIND       PRES   REMARKS
BILLINGS       CLEAR     52  26  36 SW12      30.07F
GREAT FALLS    CLEAR     55  23  28 SW20G30   29.98F
REGINA         CLEAR     43  30  61 SW9       29.73S
ESTEVAN        CLEAR     45  32  61 SW13      29.81F
$$




USA.gov is the U.S. government's official web portal to all federal, state and local government web resources and services.